Flag for Germany Weather past 2 weeks in Helmstedt, Lower Saxony, Germany

Now
31 °F

Overcast.


Feels Like: 31 °F
Forecast: 25 / 31 °F
Wind: 1 mph from Southwest

Location: Magdeburg

Current Time: Dec 26, 2014 at 9:07:13 PM

Latest Report: Dec 26, 2014 at 8:00 PM


Visibility: 10 mi

Pressure: 30.30 "Hg

Humidity: 88%

Dew point: 27 °F

Location of HelmstedtLocation

Historic Weather in Helmstedt — Graph

°F

Helmstedt temperature yesterday

Maximum temperature yesterday: 44 °F (at 3:00 PM)
Minimum temperature yesterday: 34 °F (at 11:00 PM)
Average temperature yesterday: 41 °F

Past Weeks' High & Low Weather Summary

 TemperatureHumidityPressure
High56 °F (Dec 18, 11:00 PM)97% (Dec 17, 7:00 PM)30.37 "Hg (Dec 17, 7:00 PM)
Low28 °F (Dec 15, 3:00 AM)61% (Dec 25, 3:00 PM)29.38 "Hg (Dec 12, 5:00 PM)
Average43 °F82%29.90 "Hg
* Reported Dec 11 8:00 PM — Dec 26 8:00 PM, Helmstedt, Weather by CustomWeather, © 2014

Note: Actual official high and low records may vary slightly from our data, if they occured in-between our weather recording intervals... More about our weather records

Advertising

Helmstedt weather history for previous 24 hours

 ConditionsComfort  
Time TempWeatherWind HumidityBarometerVisibility
8:00 PM
Dec 26
31 °FOvercast.1 mph88%30.30 "Hg10 mi
7:00 PM31 °FOvercast.1 mph88%30.31 "Hg11 mi
6:00 PM31 °FOvercast.1 mph82%30.33 "Hg22 mi
5:00 PM32 °FOvercast.1 mph82%30.34 "Hg25 mi
3:00 PM33 °FOvercast.1 mph75%30.34 "Hg37 mi
2:00 PM33 °FPartly sunny.2 mph75%30.35 "Hg37 mi
1:00 PM34 °FScattered clouds.2 mph76%30.36 "Hg31 mi
12:00 PM33 °FScattered clouds.2 mph76%30.37 "Hg25 mi
11:00 AM32 °FPartly sunny.2 mph85%30.37 "Hg22 mi
9:00 AM31 °FSunny.1 mph93%30.35 "Hg19 mi
8:00 AM32 °FOvercast.2 mph90%30.34 "Hg12 mi
7:00 AM33 °FLight snow. Overcast.2 mph92%30.33 "Hg12 mi
6:00 AM33 °FOvercast.2 mph89%30.32 "Hg19 mi
5:00 AM34 °FOvercast.2 mph92%30.32 "Hg11 mi
3:00 AM34 °FLight snow. Low clouds.2 mph96%30.30 "Hg4 mi
2:00 AM34 °FDrizzle. Low clouds.2 mph96%30.29 "Hg5 mi
1:00 AM34 °FDrizzle. Low clouds.2 mph94%30.27 "Hg6 mi
12:00 AM34 °FDrizzle. Overcast.2 mph94%30.25 "Hg34 mi
11:00 PM
Dec 25
34 °FLight snow. Low clouds.3 mph94%30.22 "Hg7 mi
9:00 PM36 °FLight rain. Low clouds.6 mph92%30.14 "Hg10 mi
Weather by CustomWeather, © 2014

See weather overviewHow to use our weather pages